Wind_Speed
18 14 12 10 9 9 8 7 6 5 4 5 6 10 13 6 4 3 5 5 2 1 3 6 5 6 6 4 2 3 6 10 10 11 8 5 6 3 1 2 5 4 6 7 6
20 20 15 11 9 9 9 7 6 5 3 4 6 9 10 3 4 7 5 4 3 3 3 8 7 9 5 4 4 7 8 5 5 3 6 5 3 1 5 5 4 3 3 3 2
24 23 19 14 10 8 8 8 6 4 4 5 6 9 7 2 8 7 4 3 4 3 2 2 5 7 5 6 4 4 5 4 8 4 2 4 6 4 6 8 5 6 4 3 4
29 26 24 19 11 9 7 6 5 4 4 5 7 10 3 4 1 7 4 2 3 1 1 4 7 9 6 7 4 7 2 3 7 5 4 6 5 10 10 9 3 4 4 5 7
30 27 27 23 17 9 7 5 5 5 5 5 6 9 2 6 4 7 5 3 2 1 4 1 6 5 8 5 6 6 7 4 5 6 8 4 9 9 9 3 4 5 6 7 7
32 30 29 26 21 12 8 7 6 5 5 6 6 8 5 7 7 7 7 5 3 2 2 2 2 2 3 4 9 3 5 5 5 5 7 10 6 4 8 4 5 5 7 8 8
33 32 32 30 25 13 9 9 8 8 7 6 5 4 7 2 7 7 7 5 3 2 1 2 2 5 2 6 2 4 10 8 8 6 6 5 10 10 6 6 9 11 11 11 10
36 33 33 31 28 14 7 8 9 9 10 7 4 3 6 4 8 8 7 6 3 3 2 2 2 0 5 2 6 10 9 12 10 7 7 6 10 12 7 9 14 15 14 15 16
37 35 35 32 27 13 5 6 8 5 3 5 3 5 5 4 8 6 9 8 7 4 4 3 5 2 5 10 8 9 10 11 8 7 3 9 10 4 9 11 14 15 16 16 16
37 36 34 32 25 9 4 3 0 3 3 3 3 6 8 8 8 5 5 6 5 7 6 8 6 8 8 9 9 5 10 8 11 8 9 13 16 12 11 13 14 15 16 14 13
39 38 35 30 22 5 3 2 5 6 8 10 3 6 4 5 4 9 6 8 6 7 9 4 9 11 9 5 8 9 10 12 8 7 9 13 15 15 13 14 12 11 11 10 11
40 40 36 26 15 2 1 2 4 5 9 10 12 14 15 2 7 10 9 9 9 11 4 7 10 8 4 6 9 11 13 13 10 10 8 15 18 16 17 16 10 9 8 10 9
41 42 36 25 5 2 2 3 4 3 6 2 3 4 7 16 11 10 12 13 10 10 10 10 7 4 10 9 10 12 13 12 13 11 12 17 20 20 7 11 11 10 9 8 9
41 42 32 22 2 5 3 4 7 4 5 6 5 5 6 7 9 15 13 10 8 10 10 9 1 7 11 11 10 13 10 12 14 13 12 2 11 9 13 12 14 16 11 9 7
41 41 24 17 9 4 4 11 4 4 5 4 6 4 5 7 3 7 11 10 14 9 7 3 8 8 11 11 8 14 6 12 14 15 16 15 11 13 4 10 11 13 10 7 5
40 37 18 11 4 5 9 7 4 6 5 5 4 3 6 9 5 5 7 8 5 14 15 18 14 10 15 11 9 9 12 13 12 13 15 19 16 10 10 9 11 11 9 8 8
40 28 12 9 9 15 10 4 5 6 3 3 2 2 5 5 5 9 12 12 11 13 15 18 19 18 14 17 15 12 15 10 12 10 11 4 7 15 2 6 8 10 12 10 9
41 16 8 10 11 8 6 5 7 4 2 3 3 8 7 4 7 7 10 13 16 18 17 18 19 14 12 19 17 13 15 12 14 12 10 8 7 5 6 11 11 9 9 11 9
38 10 7 18 11 7 6 6 4 3 6 7 9 10 10 5 5 7 12 12 14 9 16 14 20 11 6 13 13 15 11 16 20 20 16 17 22 11 13 12 11 13 13 13 10
19 6 13 24 10 7 5 3 3 6 8 6 8 4 10 9 11 8 8 6 9 4 10 14 17 16 13 8 11 14 15 11 11 16 22 16 18 10 4 13 14 14 15 15 14
8 4 14 24 5 5 6 4 2 6 10 7 5 9 12 12 9 13 7 7 11 12 16 14 17 18 18 15 18 12 16 16 15 16 17 19 14 7 3 8 12 13 16 10 11
8 2 18 20 2 2 2 4 4 7 9 4 6 7 8 8 12 13 13 11 10 14 14 9 7 15 19 17 14 17 21 17 13 17 18 18 20 12 11 10 7 8 6 10 6
7 4 11 15 2 4 3 3 3 8 8 5 4 4 5 8 8 11 10 6 14 14 10 10 8 13 19 18 17 16 25 23 23 16 23 20 20 5 3 9 9 12 9 11 14
5 4 3 6 5 5 5 2 3 5 2 5 7 6 8 10 10 9 11 10 10 16 13 8 15 18 18 23 21 20 21 25 23 16 26 21 30 25 14 12 13 16 19 15 16
4 4 3 4 3 5 3 3 4 3 2 5 4 5 7 6 12 16 11 16 19 15 17 5 19 18 24 25 20 19 20 24 23 28 27 27 26 24 20 18 15 23 15 15 17
4 4 1 5 3 5 1 2 5 3 4 5 5 4 9 13 15 20 19 16 13 11 14 14 16 15 25 22 23 24 23 24 24 25 19 26 27 25 25 24 20 14 13 12 12
3 0 4 2 2 5 3 3 3 6 5 8 10 12 15 14 11 13 16 18 20 20 19 18 17 17 26 19 22 22 22 24 26 23 25 23 27 31 26 12 9 10 9 10 10
Wind_Direction
19 10 359 354 353 351 346 340 332 333 339 347 347 348 349 17 117 160 97 92 131 72 154 167 177 167 192 153 205 253 232 203 191 192 145 153 194 116 110 112 74 90 88 93 102
25 17 4 349 345 344 344 340 330 323 325 334 344 350 349 356 218 112 119 98 75 77 177 199 162 178 158 164 176 243 244 189 144 160 183 159 252 114 225 176 160 156 139 134 141
23 18 12 357 338 337 340 340 331 316 310 319 334 347 338 283 228 114 127 78 52 66 78 147 165 210 169 202 160 171 247 145 165 164 255 242 240 222 248 225 214 228 207 226 260
22 18 14 5 347 325 327 333 326 310 301 312 330 343 333 234 286 127 158 129 83 106 182 161 196 196 192 185 172 196 157 186 154 173 232 237 294 256 244 265 22 250 250 246 245
18 16 13 8 355 324 305 306 306 298 293 303 321 338 298 210 151 157 174 158 174 278 42 85 204 200 197 172 180 232 171 191 198 234 238 253 257 268 247 247 244 237 228 239 242
15 12 9 5 359 334 289 276 276 282 283 288 308 328 264 237 133 165 178 199 227 248 64 27 70 292 166 192 234 140 212 214 202 185 199 230 234 228 207 208 225 242 241 228 242
11 9 5 360 356 342 297 270 263 263 268 271 287 323 259 49 173 182 198 230 221 266 228 100 80 245 177 182 151 200 232 194 197 176 173 250 231 224 180 223 246 247 245 243 239
7 5 360 358 352 342 305 275 272 276 266 250 259 274 260 167 189 212 208 209 214 222 280 222 241 275 265 88 198 224 236 207 164 198 151 240 265 171 232 239 260 268 266 262 253
1 360 357 354 351 344 316 291 282 274 228 201 241 250 248 182 205 207 206 204 157 163 147 152 217 268 187 223 208 199 238 222 166 213 198 222 272 224 241 265 272 266 262 259 259
359 354 353 351 350 349 332 316 325 103 132 169 228 243 216 202 164 167 172 191 187 166 172 209 217 225 216 226 244 227 233 213 249 170 239 258 258 255 259 269 275 262 255 253 256
355 353 348 346 347 351 332 260 223 177 203 266 293 259 148 159 210 200 178 186 204 231 242 196 255 228 237 246 303 280 268 265 262 262 268 266 272 271 271 274 265 240 231 234 246
354 351 345 343 342 353 2 319 53 348 295 265 257 257 259 203 213 203 188 211 206 238 189 225 236 269 240 245 250 247 255 256 259 258 269 275 274 273 273 263 246 250 233 235 236
353 351 346 344 333 48 303 89 338 281 268 302 228 239 208 205 217 208 204 213 227 235 231 271 317 293 212 224 243 240 259 270 275 289 266 267 274 256 229 224 224 243 244 243 249
353 352 348 353 134 335 150 331 322 215 272 132 162 128 163 199 218 224 214 209 218 248 252 272 108 222 233 244 244 269 257 258 272 272 273 87 285 269 241 239 243 237 219 221 225
351 350 348 359 319 293 347 328 304 228 280 112 107 115 169 219 89 168 207 213 244 221 237 267 207 222 243 254 268 274 312 273 272 270 276 259 253 274 192 227 205 201 201 194 186
348 348 349 351 319 336 318 315 243 235 235 132 109 169 201 219 227 134 195 224 291 265 243 262 272 264 258 268 261 273 269 254 255 259 258 250 239 256 227 219 196 185 185 169 155
345 347 3 358 328 311 309 228 231 246 90 105 77 341 301 260 250 236 224 209 237 244 249 243 242 241 251 254 226 246 254 258 243 216 252 100 254 245 246 212 199 190 184 176 169
341 350 346 12 327 331 266 220 243 66 331 40 316 302 268 331 246 286 264 260 252 255 272 275 274 243 223 237 261 231 249 248 274 267 268 144 243 248 279 238 221 224 214 182 193
343 342 5 347 335 318 259 237 353 16 357 328 305 273 259 170 323 296 276 279 289 277 258 276 276 250 264 255 255 246 237 267 275 271 271 263 267 229 219 240 232 216 214 196 181
337 323 17 345 327 278 250 278 119 39 338 316 289 271 288 305 305 291 300 319 297 276 298 285 290 267 265 246 245 253 277 230 230 262 261 258 251 255 190 214 223 226 210 209 185
322 286 3 345 296 239 262 49 44 42 11 335 319 293 291 293 290 292 284 295 16 339 323 292 279 269 270 235 255 224 236 231 264 263 273 273 268 35 4 254 241 220 215 214 201
320 301 354 348 236 7 13 357 332 358 6 340 301 309 303 309 291 280 273 268 26 342 312 306 292 278 267 270 271 283 273 256 248 256 249 258 264 284 282 220 230 214 210 204 227
334 314 353 349 44 44 1 324 7 1 18 8 311 12 351 298 295 269 279 310 356 333 355 337 268 289 275 248 243 244 248 253 255 264 257 259 263 155 243 259 237 244 234 244 277
310 329 50 53 47 359 358 17 353 33 66 348 315 293 308 283 266 280 290 291 336 315 337 291 261 255 263 275 312 301 282 261 250 236 243 241 262 263 228 205 231 247 277 280 280
354 46 25 341 54 351 301 329 322 334 345 318 277 257 318 289 304 279 293 314 299 278 279 261 275 277 272 274 279 284 295 301 293 256 250 254 249 256 267 275 307 291 298 284 273
338 338 325 291 290 300 139 87 327 348 303 308 261 295 295 287 284 290 292 286 284 289 273 274 270 287 277 278 278 275 258 242 255 280 286 283 268 267 276 280 265 279 269 261 257
25 337 284 129 283 292 40 25 324 317 256 249 295 301 293 298 306 295 284 274 266 272 272 272 269 265 269 282 281 261 255 250 254 240 237 249 261 269 272 292 258 246 257 263 269
Height
813 810 807 804 802 800 799 797 796 794 793 792 791 789 786 784 783 782 778 782 782 780 780 781 779 778 776 772 772 769 771 771 773 771 771 764 764 762 762 760 760 760 761 768 770
814 810 807 804 801 800 798 796 795 793 792 791 790 788 786 784 783 778 782 781 781 780 779 777 774 775 771 771 770 769 768 765 761 762 767 766 767 766 767 765 765 764 764 767 769
814 810 806 803 801 798 797 795 794 793 791 790 789 787 785 784 778 778 781 781 780 780 780 777 775 770 772 769 772 769 767 771 773 769 768 768 769 764 767 769 762 764 764 765 766
814 811 806 802 799 797 795 794 793 792 791 790 788 787 784 784 785 778 781 781 780 780 778 775 772 772 772 774 771 777 773 771 771 772 772 773 767 768 765 762 762 765 766 767 767
815 810 806 802 798 795 794 792 791 790 790 789 787 786 785 779 775 779 780 781 781 780 777 773 770 770 774 772 774 773 774 773 771 772 772 771 772 769 765 760 764 764 767 767 767
815 810 805 800 796 793 791 790 789 789 788 787 787 785 784 779 776 779 780 781 780 777 777 773 772 770 771 772 774 772 773 772 771 770 772 776 769 772 763 764 764 764 762 763 765
814 809 804 798 793 790 788 787 786 786 786 786 785 785 781 771 776 778 779 778 778 778 775 776 775 772 772 775 773 773 779 772 771 769 772 770 775 773 759 762 763 761 760 759 761
813 807 802 796 791 786 785 784 784 784 783 784 785 785 775 773 775 776 776 776 778 778 778 777 776 773 771 772 774 777 774 776 766 769 769 773 772 757 757 761 761 758 756 755 754
812 806 800 794 788 784 782 781 781 780 781 782 785 783 772 772 773 772 773 772 775 777 777 778 775 773 774 774 776 774 772 775 769 765 767 771 767 755 756 757 758 756 753 750 749
811 804 798 792 787 783 781 780 780 780 781 782 782 784 769 766 769 772 773 773 772 774 775 774 771 773 770 772 776 767 775 772 774 763 768 767 762 753 750 751 751 750 746 745 745
810 803 796 790 785 782 781 781 779 777 778 768 763 763 765 767 770 769 771 772 772 771 776 772 777 775 763 765 768 772 775 774 765 761 773 766 761 752 746 745 744 742 742 742 742
808 801 793 788 783 781 780 775 779 783 775 762 763 763 764 768 768 765 769 771 772 776 772 777 776 761 763 770 775 774 774 771 763 761 769 763 757 745 741 739 739 738 738 738 737
807 799 790 784 781 782 781 780 782 781 773 761 760 760 762 767 765 761 765 763 770 772 770 775 764 766 770 771 776 770 773 769 770 761 761 761 757 737 734 733 735 736 735 736 736
806 798 790 783 783 782 779 782 780 780 774 761 758 759 761 758 768 758 760 762 765 771 765 768 759 769 770 770 767 774 755 763 767 770 772 756 766 738 730 730 731 732 733 731 732
806 798 791 785 786 780 784 782 781 779 790 758 759 757 757 759 755 761 758 760 767 764 770 762 765 767 769 763 759 766 757 763 762 764 761 756 763 738 727 736 730 727 728 729 730
804 798 791 789 787 786 782 780 781 782 786 761 756 760 762 756 755 757 759 760 756 761 757 760 746 758 755 751 755 753 763 761 761 761 767 747 749 734 721 727 723 722 725 728 727
802 796 792 789 788 784 782 778 782 785 757 769 770 765 765 764 760 758 760 765 769 773 766 752 750 747 749 758 750 760 765 770 763 760 759 742 751 731 720 721 717 722 723 727 726
801 794 793 791 787 783 781 775 791 772 770 768 770 767 771 762 759 760 762 763 751 756 758 763 763 743 742 751 750 745 756 762 770 756 738 744 752 733 716 713 716 717 719 724 727
799 795 793 790 785 784 777 781 775 779 781 780 771 770 765 766 769 766 763 760 752 749 766 760 753 734 744 740 743 747 760 743 752 741 750 738 725 712 718 720 718 719 720 724 727
802 796 792 789 785 782 775 783 782 789 785 779 783 772 776 771 778 768 766 755 759 754 750 756 764 743 739 745 743 749 736 760 754 772 761 732 724 722 720 721 718 718 718 719 724
804 791 792 788 785 777 779 781 787 788 791 789 784 784 781 781 779 776 770 759 768 767 757 754 758 752 741 751 749 746 748 745 745 742 749 742 724 705 711 713 712 710 709 714 721
808 789 795 788 783 787 787 800 802 794 793 791 789 788 790 787 786 782 776 768 771 773 771 758 767 762 752 736 736 741 738 741 761 757 740 732 720 699 707 711 711 714 714 716 720
812 805 800 792 793 798 802 802 801 803 802 798 795 798 796 797 797 779 776 771 777 783 782 776 767 774 753 738 733 741 736 732 731 734 750 741 719 705 709 713 714 716 714 715 716
817 804 802 806 815 812 812 805 804 807 806 804 802 798 802 797 793 789 786 785 786 788 789 788 775 782 779 758 754 760 754 741 732 745 723 729 715 708 705 715 712 711 711 712 720
825 821 829 809 810 819 816 813 808 810 810 808 804 802 808 805 797 794 787 790 791 786 784 783 778 770 763 756 763 770 772 763 749 738 728 711 711 700 699 703 708 710 711 717 719
829 829 825 820 823 815 821 811 813 815 818 808 809 805 809 810 807 802 798 796 791 784 781 778 780 777 765 758 755 756 753 762 763 762 753 737 714 699 702 700 703 711 715 718 717
842 841 837 823 816 815 811 815 816 821 812 811 810 810 807 803 803 803 800 796 790 788 785 782 776 776 764 759 750 745 736 737 728 732 733 739 724 707 697 698 703 711 714 717 717